| time (UTC) | temp F | wind direction | speed MPH | gust MPH | rain 1hr in | rain 24hr in | rain mn in | humidity % | barometer mb |
| 20260906203346 | 82 | 107 | 2.0 | 3.0 | 0.00 | 0.00 | 0.00 | 68 | 1019.8 |
| 20260906202844 | 82 | 71 | 2.0 | 2.0 | 0.00 | 0.00 | 0.00 | 69 | 1020.0 |
| 20260906202337 | 82 | 112 | 0.0 | 0.0 | 0.00 | 0.00 | 0.00 | 66 | 1020.1 |
| 20260906201831 | 82 | 122 | 2.0 | 3.0 | 0.00 | 0.00 | 0.00 | 67 | 1020.2 |
| 20260906201327 | 83 | 247 | 2.0 | 3.0 | 0.00 | 0.00 | 0.00 | 67 | 1020.0 |
| 20260906200822 | 82 | 42 | 1.0 | 3.0 | 0.00 | 0.00 | 0.00 | 67 | 1019.9 |
| 20260906200318 | 82 | 188 | 1.0 | 2.0 | 0.00 | 0.00 | 0.00 | 69 | 1020.2 |
| 20260906195813 | 84 | 188 | 2.0 | 3.0 | 0.00 | 0.00 | 0.00 | 71 | 1020.2 |
| 20260906195309 | 83 | 166 | 1.0 | 2.0 | 0.00 | 0.00 | 0.00 | 68 | 1020.2 |
| 20260906194805 | 82 | 26 | 1.0 | 1.0 | 0.00 | 0.00 | 0.00 | 71 | 1020.2 |
| 20260906194300 | 82 | 147 | 1.0 | 1.0 | 0.00 | 0.00 | 0.00 | 69 | 1020.2 |
| 20260906193755 | 83 | 134 | 1.0 | 2.0 | 0.00 | 0.00 | 0.00 | 71 | 1020.2 |
| 20260906193249 | 84 | 217 | 2.0 | 2.0 | 0.00 | 0.00 | 0.00 | 66 | 1019.9 |
| 20260906192746 | 83 | 110 | 1.0 | 2.0 | 0.00 | 0.00 | 0.00 | 70 | 1020.0 |
| 20260906192240 | 83 | 172 | 2.0 | 2.0 | 0.00 | 0.00 | 0.00 | 68 | 1020.1 |
| 20260906191739 | 81 | 46 | 2.0 | 2.0 | 0.00 | 0.00 | 0.00 | 73 | 1020.1 |
| 20260906191234 | 82 | 56 | 2.0 | 2.0 | 0.00 | 0.00 | 0.00 | 69 | 1020.0 |
| 20260906190728 | 82 | 163 | 0.0 | 0.0 | 0.00 | 0.00 | 0.00 | 74 | 1020.0 |
| 20260906190223 | 82 | 143 | 1.0 | 1.0 | 0.00 | 0.00 | 0.00 | 71 | 1020.0 |
| 20260906185722 | 82 | 203 | 2.0 | 3.0 | 0.00 | 0.00 | 0.00 | 71 | 1020.2 |
| 20260906185221 | 83 | 54 | 3.0 | 4.0 | 0.00 | 0.00 | 0.00 | 71 | 1020.3 |
| 20260906184716 | 83 | 203 | 2.0 | 2.0 | 0.00 | 0.00 | 0.00 | 70 | 1020.2 |
| 20260906184211 | 82 | 162 | 0.0 | 1.0 | 0.00 | 0.00 | 0.00 | 75 | 1020.4 |
| 20260906183707 | 80 | 77 | 1.0 | 1.0 | 0.00 | 0.00 | 0.00 | 73 | 1020.4 |
| 20260906183203 | 80 | 37 | 2.0 | 2.0 | 0.00 | 0.00 | 0.00 | 75 | 1020.4 |
| 20260906182703 | 82 | 129 | 2.0 | 2.0 | 0.00 | 0.00 | 0.00 | 72 | 1020.4 |
| 20260906182159 | 81 | 193 | 2.0 | 3.0 | 0.00 | 0.00 | 0.00 | 71 | 1020.5 |
| 20260906181654 | 80 | 16 | 1.0 | 1.0 | 0.00 | 0.00 | 0.00 | 71 | 1020.4 |
| 20260906181149 | 81 | 208 | 2.0 | 3.0 | 0.00 | 0.00 | 0.00 | 75 | 1020.6 |
| 20260906180644 | 80 | 34 | 3.0 | 4.0 | 0.00 | 0.00 | 0.00 | 76 | 1020.5 |
| 20260906180139 | 79 | 175 | 0.0 | 0.0 | 0.00 | 0.00 | 0.00 | 76 | 1020.8 |
| 20260906175637 | 81 | 233 | 1.0 | 2.0 | 0.00 | 0.00 | 0.00 | 75 | 1020.9 |
| 20260906175132 | 80 | 66 | 0.0 | 0.0 | 0.00 | 0.00 | 0.00 | 76 | 1021.0 |
| 20260906174631 | 80 | 168 | 2.0 | 3.0 | 0.00 | 0.00 | 0.00 | 77 | 1020.9 |
| 20260906174126 | 80 | 123 | 2.0 | 3.0 | 0.00 | 0.00 | 0.00 | 76 | 1020.8 |
| 20260906173620 | 79 | 84 | 2.0 | 2.0 | 0.00 | 0.00 | 0.00 | 82 | 1020.9 |
| 20260906173116 | 79 | 53 | 2.0 | 3.0 | 0.00 | 0.00 | 0.00 | 80 | 1021.1 |
| 20260906172610 | 78 | 159 | 0.0 | 0.0 | 0.00 | 0.00 | 0.00 | 81 | 1021.3 |
| 20260906172106 | 78 | 179 | 2.0 | 2.0 | 0.00 | 0.00 | 0.00 | 82 | 1021.5 |
| 20260906171605 | 77 | 181 | 1.0 | 1.0 | 0.00 | 0.00 | 0.00 | 84 | 1021.4 |
| 20260906171101 | 76 | 183 | 2.0 | 3.0 | 0.00 | 0.00 | 0.00 | 84 | 1021.5 |
| 20260906170557 | 77 | 30 | 2.0 | 3.0 | 0.00 | 0.00 | 0.00 | 83 | 1021.5 |
| 20260906170056 | 78 | 163 | 0.0 | 1.0 | 0.00 | 0.00 | 0.00 | 82 | 1021.6 |
| 20260906165552 | 77 | 210 | 0.0 | 0.0 | 0.00 | 0.00 | 0.00 | 85 | 1021.5 |
| 20260906165047 | 77 | 80 | 3.0 | 3.0 | 0.00 | 0.00 | 0.00 | 81 | 1021.5 |
| 20260906164547 | 76 | 129 | 1.0 | 2.0 | 0.00 | 0.00 | 0.00 | 85 | 1021.6 |
| 20260906164042 | 76 | 117 | 2.0 | 2.0 | 0.00 | 0.00 | 0.00 | 85 | 1021.4 |
| 20260906163538 | 76 | 91 | 4.0 | 6.0 | 0.00 | 0.00 | 0.00 | 84 | 1021.5 |
| 20260906163033 | 76 | 175 | 1.0 | 1.0 | 0.00 | 0.00 | 0.00 | 84 | 1021.5 |
| 20260906162530 | 75 | 120 | 0.0 | 1.0 | 0.00 | 0.00 | 0.00 | 85 | 1021.3 |
| 20260906162025 | 75 | 165 | 1.0 | 3.0 | 0.00 | 0.00 | 0.00 | 87 | 1021.6 |
| 20260906161521 | 75 | 88 | 1.0 | 1.0 | 0.00 | 0.00 | 0.00 | 85 | 1021.5 |
| 20260906161019 | 75 | 99 | 0.0 | 0.0 | 0.00 | 0.00 | 0.00 | 85 | 1021.4 |
| 20260906160518 | 75 | 109 | 0.0 | 1.0 | 0.00 | 0.00 | 0.00 | 85 | 1021.4 |
| 20260906160017 | 74 | 102 | 0.0 | 1.0 | 0.00 | 0.00 | 0.00 | 84 | 1021.4 |
| 20260906155515 | 76 | 143 | 2.0 | 3.0 | 0.00 | 0.00 | 0.00 | 83 | 1021.2 |
| 20260906155011 | 75 | 54 | 2.0 | 3.0 | 0.00 | 0.00 | 0.00 | 83 | 1021.2 |
| 20260906154506 | 76 | 71 | 4.0 | 7.0 | 0.00 | 0.00 | 0.00 | 82 | 1021.2 |
| 20260906154005 | 74 | 58 | 0.0 | 1.0 | 0.00 | 0.00 | 0.00 | 82 | 1021.3 |
| 20260906153503 | 74 | 98 | 0.0 | 1.0 | 0.00 | 0.00 | 0.00 | 81 | 1021.1 |
| 20260906152959 | 73 | 73 | 3.0 | 4.0 | 0.00 | 0.00 | 0.00 | 85 | 1021.4 |
| 20260906152459 | 73 | 43 | 4.0 | 7.0 | 0.00 | 0.00 | 0.00 | 85 | 1021.3 |
| 20260906151953 | 71 | 144 | 0.0 | 0.0 | 0.00 | 0.00 | 0.00 | 87 | 1021.1 |
| 20260906151448 | 71 | 37 | 3.0 | 3.0 | 0.00 | 0.00 | 0.00 | 87 | 1021.2 |
| 20260906150943 | 72 | 63 | 1.0 | 1.0 | 0.00 | 0.00 | 0.00 | 87 | 1021.1 |
| 20260906150438 | 70 | 82 | 3.0 | 3.0 | 0.00 | 0.00 | 0.00 | 88 | 1021.2 |
| 20260906145932 | 71 | 54 | 0.0 | 1.0 | 0.00 | 0.00 | 0.00 | 86 | 1021.2 |
| 20260906145426 | 71 | 159 | 0.0 | 0.0 | 0.00 | 0.00 | 0.00 | 88 | 1021.3 |
| 20260906144920 | 70 | 41 | 2.0 | 2.0 | 0.00 | 0.00 | 0.00 | 88 | 1021.4 |
| 20260906144415 | 71 | 136 | 0.0 | 1.0 | 0.00 | 0.00 | 0.00 | 86 | 1021.2 |
| 20260906143910 | 69 | 72 | 0.0 | 0.0 | 0.00 | 0.00 | 0.00 | 86 | 1021.3 |
| 20260906143406 | 68 | 77 | 2.0 | 3.0 | 0.00 | 0.00 | 0.00 | 89 | 1021.3 |
| 20260906142901 | 68 | 140 | 0.0 | 0.0 | 0.00 | 0.00 | 0.00 | 90 | 1021.0 |
| 20260906142355 | 68 | 133 | 0.0 | 0.0 | 0.00 | 0.00 | 0.00 | 88 | 1021.2 |
| 20260906141850 | 66 | 151 | 1.0 | 1.0 | 0.00 | 0.00 | 0.00 | 90 | 1021.2 |
| 20260906141345 | 65 | 63 | 0.0 | 0.0 | 0.00 | 0.00 | 0.00 | 93 | 1021.4 |
| 20260906140844 | 65 | 191 | 2.0 | 2.0 | 0.00 | 0.00 | 0.00 | 93 | 1021.6 |
| 20260906140339 | 66 | 244 | 1.0 | 2.0 | 0.00 | 0.00 | 0.00 | 89 | 1021.8 |
| 20260906135836 | 65 | 99 | 0.0 | 1.0 | 0.00 | 0.00 | 0.00 | 93 | 1021.3 |
| 20260906135331 | 64 | 37 | 1.0 | 1.0 | 0.00 | 0.00 | 0.00 | 95 | 1021.4 |
| 20260906134826 | 64 | 47 | 1.0 | 2.0 | 0.00 | 0.00 | 0.00 | 95 | 1021.4 |
| 20260906134322 | 62 | 41 | 1.0 | 2.0 | 0.00 | 0.00 | 0.00 | 98 | 1021.4 |
| 20260906133817 | 60 | 62 | 0.0 | 1.0 | 0.00 | 0.00 | 0.00 | 99 | 1021.3 |
| 20260906133312 | 60 | 49 | 2.0 | 2.0 | 0.00 | 0.00 | 0.00 | 99 | 1021.2 |
| 20260906132808 | 60 | 55 | 1.0 | 2.0 | 0.00 | 0.00 | 0.00 | 99 | 1021.4 |
| 20260906132306 | 60 | 42 | 2.0 | 2.0 | 0.00 | 0.00 | 0.00 | 99 | 1021.2 |
| 20260906131759 | 60 | 54 | 0.0 | 0.0 | 0.00 | 0.00 | 0.00 | 99 | 1021.3 |
| 20260906131254 | 60 | 40 | 0.0 | 0.0 | 0.00 | 0.00 | 0.00 | 99 | 1021.3 |
| 20260906130749 | 60 | 41 | 1.0 | 1.0 | 0.00 | 0.00 | 0.00 | 99 | 1021.3 |
| 20260906130244 | 58 | 60 | 0.0 | 0.0 | 0.00 | 0.00 | 0.00 | 99 | 1021.5 |
| 20260906125742 | 58 | 54 | 0.0 | 0.0 | 0.00 | 0.00 | 0.00 | 99 | 1021.5 |
| 20260906125241 | 58 | 144 | 0.0 | 0.0 | 0.00 | 0.00 | 0.00 | 99 | 1021.6 |
| 20260906124736 | 57 | 144 | 0.0 | 0.0 | 0.00 | 0.00 | 0.00 | 99 | 1021.5 |
| 20260906124231 | 57 | 144 | 0.0 | 0.0 | 0.00 | 0.00 | 0.00 | 99 | 1021.4 |
| 20260906123730 | 57 | 144 | 0.0 | 0.0 | 0.00 | 0.00 | 0.00 | 99 | 1021.5 |
| 20260906123226 | 58 | 144 | 0.0 | 0.0 | 0.00 | 0.00 | 0.00 | 99 | 1021.2 |
| 20260906122725 | 56 | 281 | 0.0 | 0.0 | 0.00 | 0.00 | 0.00 | 99 | 1021.4 |
| 20260906122220 | 56 | 284 | 0.0 | 0.0 | 0.00 | 0.00 | 0.00 | 99 | 1021.5 |
| 20260906121717 | 56 | 312 | 0.0 | 0.0 | 0.00 | 0.00 | 0.00 | 99 | 1021.0 |
| 20260906121213 | 54 | 312 | 0.0 | 0.0 | 0.00 | 0.00 | 0.00 | 99 | 1020.7 |
| 20260906120708 | 54 | 311 | 0.0 | 0.0 | 0.00 | 0.00 | 0.00 | 99 | 1021.0 |
| 20260906120205 | 54 | 311 | 0.0 | 0.0 | 0.00 | 0.00 | 0.00 | 99 | 1020.7 |
| 20260906115700 | 54 | 311 | 0.0 | 0.0 | 0.00 | 0.00 | 0.00 | 99 | 1020.9 |
| 20260906115155 | 54 | 311 | 0.0 | 0.0 | 0.00 | 0.00 | 0.00 | 99 | 1020.7 |
| 20260906114654 | 54 | 311 | 0.0 | 0.0 | 0.00 | 0.00 | 0.00 | 99 | 1020.9 |
| 20260906114150 | 54 | 311 | 0.0 | 0.0 | 0.00 | 0.00 | 0.00 | 99 | 1020.9 |
| 20260906113649 | 54 | 311 | 0.0 | 0.0 | 0.00 | 0.00 | 0.00 | 99 | 1020.7 |
| 20260906113144 | 53 | 19 | 0.0 | 0.0 | 0.00 | 0.00 | 0.00 | 99 | 1020.7 |
| 20260906112643 | 53 | 139 | 0.0 | 0.0 | 0.00 | 0.00 | 0.00 | 99 | 1020.5 |
| 20260906112141 | 55 | 139 | 0.0 | 0.0 | 0.00 | 0.00 | 0.00 | 99 | 1020.4 |
| 20260906111640 | 55 | 82 | 0.0 | 0.0 | 0.00 | 0.00 | 0.00 | 99 | 1020.3 |
| 20260906111134 | 55 | 75 | 0.0 | 0.0 | 0.00 | 0.00 | 0.00 | 99 | 1020.3 |
| 20260906110629 | 55 | 78 | 0.0 | 0.0 | 0.00 | 0.00 | 0.00 | 99 | 1020.4 |
| 20260906110124 | 55 | 54 | 0.0 | 0.0 | 0.00 | 0.00 | 0.00 | 99 | 1020.2 |
| 20260906105618 | 54 | 65 | 0.0 | 0.0 | 0.00 | 0.00 | 0.00 | 99 | 1020.2 |
| 20260906105115 | 55 | 67 | 0.0 | 0.0 | 0.00 | 0.00 | 0.00 | 99 | 1020.2 |
| 20260906104614 | 55 | 71 | 0.0 | 0.0 | 0.00 | 0.00 | 0.00 | 99 | 1020.3 |
| 20260906104108 | 55 | 74 | 0.0 | 0.0 | 0.00 | 0.00 | 0.00 | 99 | 1020.1 |
| 20260906103606 | 54 | 66 | 0.0 | 0.0 | 0.00 | 0.00 | 0.00 | 99 | 1019.9 |
| 20260906103101 | 55 | 98 | 0.0 | 0.0 | 0.00 | 0.00 | 0.00 | 99 | 1020.0 |
| 20260906102555 | 54 | 97 | 0.0 | 0.0 | 0.00 | 0.00 | 0.00 | 99 | 1019.9 |
| 20260906102050 | 54 | 74 | 0.0 | 0.0 | 0.00 | 0.00 | 0.00 | 99 | 1019.9 |
| 20260906101545 | 54 | 304 | 0.0 | 0.0 | 0.00 | 0.00 | 0.00 | 99 | 1020.0 |
| 20260906101039 | 54 | 303 | 0.0 | 0.0 | 0.00 | 0.00 | 0.00 | 99 | 1020.0 |
| 20260906100535 | 55 | 303 | 0.0 | 0.0 | 0.00 | 0.00 | 0.00 | 99 | 1020.1 |
| 20260906100030 | 55 | 51 | 0.0 | 0.0 | 0.00 | 0.00 | 0.00 | 99 | 1020.1 |
| 20260906095524 | 55 | 51 | 0.0 | 0.0 | 0.00 | 0.00 | 0.00 | 99 | 1020.1 |
| 20260906095020 | 55 | 51 | 0.0 | 0.0 | 0.00 | 0.00 | 0.00 | 99 | 1019.7 |
| 20260906094518 | 54 | 51 | 0.0 | 0.0 | 0.00 | 0.00 | 0.00 | 99 | 1019.9 |
| 20260906094015 | 55 | 51 | 0.0 | 0.0 | 0.00 | 0.00 | 0.00 | 99 | 1019.9 |
| 20260906093511 | 55 | 51 | 0.0 | 0.0 | 0.00 | 0.00 | 0.00 | 99 | 1020.0 |
| 20260906093011 | 56 | 51 | 0.0 | 0.0 | 0.00 | 0.00 | 0.00 | 99 | 1019.8 |
| 20260906092511 | 56 | 51 | 0.0 | 0.0 | 0.00 | 0.00 | 0.00 | 99 | 1020.0 |
| 20260906092006 | 56 | 51 | 0.0 | 0.0 | 0.00 | 0.00 | 0.00 | 99 | 1020.0 |
| 20260906091501 | 56 | 51 | 0.0 | 0.0 | 0.00 | 0.00 | 0.00 | 99 | 1020.1 |
| 20260906090958 | 57 | 51 | 0.0 | 0.0 | 0.00 | 0.00 | 0.00 | 99 | 1019.9 |
| 20260906090453 | 56 | 51 | 0.0 | 0.0 | 0.00 | 0.00 | 0.00 | 99 | 1019.8 |
| 20260906085952 | 57 | 56 | 0.0 | 0.0 | 0.00 | 0.00 | 0.00 | 99 | 1019.9 |
| 20260906085452 | 57 | 79 | 0.0 | 0.0 | 0.00 | 0.00 | 0.00 | 99 | 1019.9 |
| 20260906084951 | 57 | 37 | 0.0 | 1.0 | 0.00 | 0.00 | 0.00 | 99 | 1019.7 |
| 20260906084446 | 57 | 67 | 1.0 | 1.0 | 0.00 | 0.00 | 0.00 | 99 | 1019.8 |
| 20260906083945 | 57 | 42 | 1.0 | 1.0 | 0.00 | 0.00 | 0.00 | 99 | 1019.9 |
| 20260906083441 | 57 | 55 | 0.0 | 0.0 | 0.00 | 0.00 | 0.00 | 99 | 1020.0 |
| 20260906082940 | 57 | 49 | 0.0 | 1.0 | 0.00 | 0.00 | 0.00 | 99 | 1020.0 |
| 20260906082435 | 57 | 40 | 1.0 | 1.0 | 0.00 | 0.00 | 0.00 | 99 | 1020.2 |
| 20260906081931 | 57 | 41 | 0.0 | 0.0 | 0.00 | 0.00 | 0.00 | 99 | 1020.2 |
| 20260906081426 | 57 | 44 | 0.0 | 0.0 | 0.00 | 0.00 | 0.00 | 99 | 1020.2 |
| 20260906080922 | 57 | 44 | 0.0 | 0.0 | 0.00 | 0.00 | 0.00 | 99 | 1020.1 |
| 20260906080419 | 57 | 45 | 0.0 | 0.0 | 0.00 | 0.00 | 0.00 | 99 | 1020.3 |
| 20260906075918 | 57 | 45 | 0.0 | 0.0 | 0.00 | 0.00 | 0.00 | 99 | 1020.2 |
| 20260906075413 | 57 | 44 | 0.0 | 0.0 | 0.00 | 0.00 | 0.00 | 99 | 1020.4 |
| 20260906074908 | 57 | 90 | 0.0 | 0.0 | 0.00 | 0.00 | 0.00 | 99 | 1020.4 |
| 20260906074403 | 56 | 71 | 0.0 | 0.0 | 0.00 | 0.00 | 0.00 | 99 | 1020.4 |
| 20260906073902 | 58 | 71 | 0.0 | 0.0 | 0.00 | 0.00 | 0.00 | 99 | 1020.5 |
| 20260906073357 | 57 | 71 | 0.0 | 0.0 | 0.00 | 0.00 | 0.00 | 99 | 1020.5 |
| 20260906072853 | 57 | 71 | 0.0 | 0.0 | 0.00 | 0.00 | 0.00 | 99 | 1020.5 |
| 20260906072349 | 57 | 72 | 0.0 | 0.0 | 0.00 | 0.00 | 0.00 | 99 | 1020.5 |
| 20260906071845 | 57 | 71 | 0.0 | 0.0 | 0.00 | 0.00 | 0.00 | 99 | 1020.6 |
| 20260906071340 | 57 | 71 | 0.0 | 0.0 | 0.00 | 0.00 | 0.00 | 99 | 1020.7 |
| 20260906070835 | 57 | 109 | 0.0 | 0.0 | 0.00 | 0.00 | 0.00 | 99 | 1020.7 |
| 20260906070330 | 57 | 162 | 0.0 | 0.0 | 0.00 | 0.00 | 0.00 | 99 | 1020.8 |
| 20260906065825 | 58 | 22 | 0.0 | 0.0 | 0.00 | 0.00 | 0.00 | 99 | 1020.8 |
| 20260906065320 | 58 | 52 | 0.0 | 0.0 | 0.00 | 0.00 | 0.00 | 99 | 1020.7 |
| 20260906064816 | 58 | 53 | 0.0 | 0.0 | 0.00 | 0.00 | 0.00 | 99 | 1020.6 |
| 20260906064312 | 57 | 47 | 0.0 | 0.0 | 0.00 | 0.00 | 0.00 | 99 | 1020.7 |
| 20260906063806 | 57 | 67 | 0.0 | 0.0 | 0.00 | 0.00 | 0.00 | 99 | 1020.9 |
| 20260906063302 | 58 | 67 | 0.0 | 0.0 | 0.00 | 0.00 | 0.00 | 99 | 1021.0 |
| 20260906062757 | 58 | 179 | 0.0 | 0.0 | 0.00 | 0.00 | 0.00 | 99 | 1020.8 |
| 20260906062256 | 58 | 179 | 0.0 | 0.0 | 0.00 | 0.00 | 0.00 | 99 | 1021.2 |
| 20260906061752 | 59 | 179 | 0.0 | 0.0 | 0.00 | 0.00 | 0.00 | 99 | 1020.9 |
| 20260906061248 | 59 | 179 | 0.0 | 0.0 | 0.00 | 0.00 | 0.00 | 99 | 1021.0 |
| 20260906060744 | 58 | 180 | 0.0 | 0.0 | 0.00 | 0.00 | 0.00 | 99 | 1021.1 |
| 20260906060241 | 59 | 113 | 0.0 | 0.0 | 0.00 | 0.00 | 0.00 | 99 | 1020.8 |
| 20260906055737 | 60 | 313 | 0.0 | 0.0 | 0.00 | 0.00 | 0.00 | 99 | 1020.8 |
| 20260906055232 | 59 | 84 | 0.0 | 0.0 | 0.00 | 0.00 | 0.00 | 99 | 1020.7 |
| 20260906054727 | 60 | 85 | 0.0 | 0.0 | 0.00 | 0.00 | 0.00 | 99 | 1020.5 |
| 20260906054222 | 60 | 84 | 0.0 | 0.0 | 0.00 | 0.00 | 0.00 | 99 | 1020.6 |
| 20260906053719 | 60 | 95 | 0.0 | 0.0 | 0.00 | 0.00 | 0.00 | 99 | 1020.7 |
| 20260906053214 | 60 | 347 | 0.0 | 0.0 | 0.00 | 0.00 | 0.00 | 99 | 1020.6 |
| 20260906052709 | 60 | 52 | 0.0 | 0.0 | 0.00 | 0.00 | 0.00 | 99 | 1020.4 |
| 20260906052205 | 60 | 51 | 0.0 | 0.0 | 0.00 | 0.00 | 0.00 | 99 | 1020.5 |
| 20260906051702 | 60 | 51 | 0.0 | 0.0 | 0.00 | 0.00 | 0.00 | 99 | 1020.7 |
| 20260906051201 | 60 | 51 | 0.0 | 0.0 | 0.00 | 0.00 | 0.00 | 99 | 1020.6 |
| 20260906050656 | 61 | 51 | 0.0 | 0.0 | 0.00 | 0.00 | 0.00 | 99 | 1020.6 |
| 20260906050151 | 61 | 51 | 0.0 | 0.0 | 0.00 | 0.00 | 0.00 | 99 | 1020.6 |
| 20260906045649 | 61 | 51 | 0.0 | 0.0 | 0.00 | 0.00 | 0.00 | 99 | 1020.4 |
| 20260906045146 | 60 | 51 | 0.0 | 0.0 | 0.00 | 0.00 | 0.00 | 99 | 1020.7 |
| 20260906044641 | 61 | 51 | 0.0 | 0.0 | 0.00 | 0.00 | 0.00 | 99 | 1020.9 |
| 20260906044136 | 61 | 50 | 0.0 | 0.0 | 0.00 | 0.00 | 0.00 | 99 | 1020.8 |
| 20260906043632 | 61 | 49 | 0.0 | 0.0 | 0.00 | 0.00 | 0.00 | 99 | 1020.9 |
| 20260906043127 | 62 | 301 | 0.0 | 0.0 | 0.00 | 0.00 | 0.00 | 99 | 1020.9 |
| 20260906042627 | 62 | 60 | 0.0 | 0.0 | 0.00 | 0.00 | 0.00 | 99 | 1020.8 |
| 20260906042121 | 62 | 60 | 0.0 | 0.0 | 0.00 | 0.00 | 0.00 | 99 | 1020.7 |
| 20260906041617 | 62 | 61 | 0.0 | 0.0 | 0.00 | 0.00 | 0.00 | 99 | 1020.7 |
| 20260906041112 | 62 | 60 | 0.0 | 0.0 | 0.00 | 0.00 | 0.00 | 99 | 1020.9 |
| 20260906040608 | 62 | 153 | 0.0 | 0.0 | 0.00 | 0.00 | 0.00 | 99 | 1020.9 |
| 20260906040103 | 62 | 153 | 0.0 | 0.0 | 0.00 | 0.00 | 0.00 | 99 | 1020.9 |
| 20260906035558 | 62 | 85 | 0.0 | 0.0 | 0.00 | 0.00 | 0.00 | 99 | 1020.8 |
| 20260906035054 | 61 | 84 | 0.0 | 0.0 | 0.00 | 0.00 | 0.00 | 99 | 1020.9 |
| 20260906034553 | 61 | 84 | 0.0 | 0.0 | 0.00 | 0.00 | 0.00 | 99 | 1020.8 |
| 20260906034048 | 62 | 161 | 0.0 | 0.0 | 0.00 | 0.00 | 0.00 | 99 | 1020.9 |
| 20260906033544 | 62 | 162 | 0.0 | 0.0 | 0.00 | 0.00 | 0.00 | 99 | 1021.0 |
| 20260906033039 | 62 | 162 | 0.0 | 0.0 | 0.00 | 0.00 | 0.00 | 99 | 1021.0 |
| 20260906032536 | 62 | 162 | 0.0 | 0.0 | 0.00 | 0.00 | 0.00 | 99 | 1020.9 |
| 20260906032031 | 61 | 162 | 0.0 | 0.0 | 0.00 | 0.00 | 0.00 | 99 | 1021.0 |
| 20260906031526 | 62 | 162 | 0.0 | 0.0 | 0.00 | 0.00 | 0.00 | 99 | 1020.9 |
| 20260906031022 | 62 | 162 | 0.0 | 0.0 | 0.00 | 0.00 | 0.00 | 99 | 1020.6 |
| 20260906030521 | 62 | 162 | 0.0 | 0.0 | 0.00 | 0.00 | 0.00 | 99 | 1020.9 |
| 20260906030021 | 62 | 162 | 0.0 | 0.0 | 0.00 | 0.00 | 0.00 | 99 | 1020.8 |
| 20260906025520 | 63 | 115 | 0.0 | 0.0 | 0.00 | 0.00 | 0.00 | 99 | 1020.7 |
| 20260906025018 | 62 | 88 | 0.0 | 0.0 | 0.00 | 0.00 | 0.00 | 99 | 1020.4 |
| 20260906024513 | 63 | 60 | 0.0 | 0.0 | 0.00 | 0.00 | 0.00 | 99 | 1020.3 |
| 20260906024008 | 63 | 80 | 0.0 | 0.0 | 0.00 | 0.00 | 0.00 | 99 | 1020.4 |
| 20260906023504 | 63 | 108 | 0.0 | 0.0 | 0.00 | 0.00 | 0.00 | 98 | 1020.4 |
| 20260906022958 | 64 | 56 | 0.0 | 1.0 | 0.00 | 0.00 | 0.00 | 98 | 1020.3 |
| 20260906022449 | 64 | 34 | 1.0 | 1.0 | 0.00 | 0.00 | 0.00 | 99 | 1020.0 |
| 20260906021943 | 64 | 52 | 0.0 | 1.0 | 0.00 | 0.00 | 0.00 | 99 | 1019.8 |
| 20260906021437 | 64 | 64 | 0.0 | 0.0 | 0.00 | 0.00 | 0.00 | 98 | 1019.9 |
| 20260906020932 | 64 | 68 | 2.0 | 2.0 | 0.00 | 0.00 | 0.00 | 98 | 1019.8 |
| 20260906020427 | 64 | 46 | 1.0 | 1.0 | 0.00 | 0.00 | 0.00 | 98 | 1019.6 |
| 20260906015921 | 64 | 57 | 0.0 | 0.0 | 0.00 | 0.00 | 0.00 | 98 | 1019.6 |
| 20260906015420 | 64 | 63 | 1.0 | 1.0 | 0.00 | 0.00 | 0.00 | 98 | 1019.7 |
| 20260906014915 | 65 | 66 | 0.0 | 0.0 | 0.00 | 0.00 | 0.00 | 98 | 1019.5 |
| 20260906014414 | 65 | 353 | 1.0 | 1.0 | 0.00 | 0.00 | 0.00 | 98 | 1019.4 |
| 20260906013905 | 65 | 60 | 0.0 | 0.0 | 0.00 | 0.00 | 0.00 | 98 | 1019.2 |
| 20260906013400 | 65 | 40 | 1.0 | 1.0 | 0.00 | 0.00 | 0.00 | 99 | 1019.2 |
| 20260906012856 | 65 | 53 | 0.0 | 0.0 | 0.00 | 0.00 | 0.00 | 98 | 1019.2 |
| 20260906012350 | 65 | 62 | 0.0 | 0.0 | 0.00 | 0.00 | 0.00 | 98 | 1019.3 |
| 20260906011845 | 66 | 104 | 0.0 | 0.0 | 0.00 | 0.00 | 0.00 | 97 | 1019.2 |
| 20260906011339 | 66 | 52 | 0.0 | 0.0 | 0.00 | 0.00 | 0.00 | 97 | 1019.2 |
| 20260906010835 | 66 | 43 | 1.0 | 1.0 | 0.00 | 0.00 | 0.00 | 96 | 1019.0 |
| 20260906010331 | 66 | 35 | 1.0 | 1.0 | 0.00 | 0.00 | 0.00 | 96 | 1019.2 |
| 20260906005826 | 66 | 62 | 1.0 | 2.0 | 0.00 | 0.00 | 0.00 | 96 | 1019.0 |
| 20260906005326 | 66 | 46 | 0.0 | 1.0 | 0.00 | 0.00 | 0.00 | 96 | 1018.9 |
| 20260906004824 | 67 | 46 | 0.0 | 0.0 | 0.00 | 0.00 | 0.00 | 95 | 1018.9 |
| 20260906004324 | 67 | 100 | 0.0 | 1.0 | 0.00 | 0.00 | 0.00 | 95 | 1018.9 |
| 20260906003820 | 67 | 53 | 0.0 | 1.0 | 0.00 | 0.00 | 0.00 | 94 | 1019.2 |
| 20260906003315 | 68 | 12 | 1.0 | 1.0 | 0.00 | 0.00 | 0.00 | 93 | 1019.0 |
| 20260906002810 | 68 | 54 | 1.0 | 1.0 | 0.00 | 0.00 | 0.00 | 92 | 1018.9 |
| 20260906002309 | 68 | 52 | 2.0 | 2.0 | 0.00 | 0.00 | 0.00 | 92 | 1019.2 |
| 20260906001805 | 68 | 57 | 0.0 | 0.0 | 0.00 | 0.00 | 0.00 | 92 | 1019.2 |
| 20260906001301 | 68 | 65 | 0.0 | 1.0 | 0.00 | 0.00 | 0.00 | 92 | 1019.3 |
| 20260906000755 | 69 | 63 | 0.0 | 0.0 | 0.00 | 0.00 | 0.00 | 90 | 1019.2 |
| 20260906000250 | 69 | 59 | 0.0 | 0.0 | 0.00 | 0.00 | 0.00 | 90 | 1019.0 |
| 20260905235745 | 69 | 71 | 0.0 | 1.0 | 0.00 | 0.00 | 0.00 | 90 | 1019.3 |
| 20260905235244 | 69 | 38 | 1.0 | 2.0 | 0.00 | 0.00 | 0.00 | 89 | 1019.4 |
| 20260905234740 | 69 | 55 | 0.0 | 0.0 | 0.00 | 0.00 | 0.00 | 90 | 1019.3 |
| 20260905234235 | 70 | 31 | 1.0 | 1.0 | 0.00 | 0.00 | 0.00 | 89 | 1018.9 |
| 20260905233730 | 70 | 58 | 3.0 | 4.0 | 0.00 | 0.00 | 0.00 | 89 | 1018.8 |
| 20260905233230 | 71 | 17 | 3.0 | 4.0 | 0.00 | 0.00 | 0.00 | 88 | 1018.7 |
| 20260905232729 | 71 | 61 | 2.0 | 3.0 | 0.00 | 0.00 | 0.00 | 87 | 1018.7 |
| 20260905232225 | 71 | 1 | 2.0 | 2.0 | 0.00 | 0.00 | 0.00 | 88 | 1018.5 |
| 20260905231721 | 71 | 47 | 2.0 | 3.0 | 0.00 | 0.00 | 0.00 | 88 | 1018.7 |
| 20260905231217 | 70 | 26 | 2.0 | 2.0 | 0.00 | 0.00 | 0.00 | 88 | 1018.9 |
| 20260905230714 | 70 | 13 | 2.0 | 3.0 | 0.00 | 0.00 | 0.00 | 89 | 1018.9 |
| 20260905230211 | 70 | 77 | 1.0 | 1.0 | 0.00 | 0.00 | 0.00 | 90 | 1019.2 |
| 20260905225711 | 70 | 38 | 1.0 | 1.0 | 0.00 | 0.00 | 0.00 | 89 | 1018.8 |
| 20260905225206 | 70 | 53 | 3.0 | 4.0 | 0.00 | 0.00 | 0.00 | 88 | 1019.0 |
| 20260905224705 | 71 | 26 | 1.0 | 2.0 | 0.00 | 0.00 | 0.00 | 88 | 1018.9 |
| 20260905224201 | 71 | 46 | 2.0 | 2.0 | 0.00 | 0.00 | 0.00 | 88 | 1019.0 |
| 20260905223657 | 71 | 92 | 2.0 | 2.0 | 0.00 | 0.00 | 0.00 | 87 | 1019.4 |
| 20260905223153 | 71 | 40 | 3.0 | 3.0 | 0.00 | 0.00 | 0.00 | 86 | 1019.6 |
| 20260905222648 | 72 | 34 | 2.0 | 3.0 | 0.00 | 0.00 | 0.00 | 86 | 1019.4 |
| 20260905222143 | 72 | 42 | 2.0 | 2.0 | 0.00 | 0.00 | 0.00 | 85 | 1019.0 |
| 20260905221638 | 72 | 42 | 2.0 | 3.0 | 0.00 | 0.00 | 0.00 | 84 | 1019.0 |
| 20260905221135 | 72 | 40 | 1.0 | 2.0 | 0.00 | 0.00 | 0.00 | 85 | 1019.3 |
| 20260905220631 | 72 | 107 | 3.0 | 4.0 | 0.00 | 0.00 | 0.00 | 84 | 1019.5 |
| 20260905220127 | 72 | 60 | 1.0 | 1.0 | 0.00 | 0.00 | 0.00 | 85 | 1019.4 |
| 20260905215626 | 72 | 50 | 4.0 | 4.0 | 0.00 | 0.00 | 0.00 | 85 | 1019.4 |
| 20260905215122 | 72 | 64 | 2.0 | 2.0 | 0.00 | 0.00 | 0.00 | 85 | 1019.4 |
| 20260905214617 | 72 | 37 | 1.0 | 2.0 | 0.00 | 0.00 | 0.00 | 85 | 1019.5 |
| 20260905214112 | 72 | 48 | 1.0 | 1.0 | 0.00 | 0.00 | 0.00 | 83 | 1019.5 |
| 20260905213607 | 72 | 59 | 2.0 | 2.0 | 0.00 | 0.00 | 0.00 | 83 | 1019.8 |
| 20260905213102 | 73 | 73 | 1.0 | 1.0 | 0.00 | 0.00 | 0.00 | 84 | 1019.7 |
| 20260905212557 | 72 | 48 | 1.0 | 1.0 | 0.00 | 0.00 | 0.00 | 84 | 1019.7 |
| 20260905212057 | 73 | 57 | 2.0 | 2.0 | 0.00 | 0.00 | 0.00 | 82 | 1019.9 |
| 20260905211552 | 73 | 165 | 0.0 | 0.0 | 0.00 | 0.00 | 0.00 | 81 | 1020.0 |
| 20260905211047 | 73 | 43 | 1.0 | 2.0 | 0.00 | 0.00 | 0.00 | 82 | 1020.0 |
| 20260905210543 | 73 | 67 | 0.0 | 0.0 | 0.00 | 0.00 | 0.00 | 84 | 1020.0 |
| 20260905210037 | 72 | 83 | 0.0 | 0.0 | 0.00 | 0.00 | 0.00 | 83 | 1020.0 |
| 20260905205536 | 73 | 42 | 1.0 | 2.0 | 0.00 | 0.00 | 0.00 | 84 | 1020.0 |
| 20260905205031 | 73 | 61 | 0.0 | 0.0 | 0.00 | 0.00 | 0.00 | 85 | 1020.1 |
| 20260905204526 | 73 | 196 | 0.0 | 0.0 | 0.00 | 0.00 | 0.00 | 82 | 1020.3 |
| 20260905204021 | 73 | 212 | 0.0 | 0.0 | 0.00 | 0.00 | 0.00 | 82 | 1020.4 |